Torna al catalogo

DELTA 1 DEB

AttivoSSO
NORAD 42657·DEBRIS·🇺🇸 United States

Lanciato Jun 12, 1975 da Vandenberg Space Force Base

Loading…

Prossimi Passaggi (prossime 24 ore)

TLE

AggiornatoSource: Space-Track

Epoca: Sep 12, 2026, 12:10 UTC

1 42657U 75052MS  26255.50739549  .00000010  00000-0  78046-4 0  9995
2 42657  99.6594 152.8476 0045810 128.9761 231.5471 13.54523011633003

Traccia DELTA 1 DEB in tempo reale con AllMySat

Download on the App Store